Vorticity
2 5 5 4 6 5 4 4 8 12 12 11 7 7 7 2 3 4 4 1 2 5 4 6 8 1 5 9 5 2 2 4 4 6 6 6 8 6 3 3 4 4 5 5 4 4 5 6 7 8 7 6 7 6 3 3 3 5 4 5 6 6 5 5 6 5 5 6 5 6 6 6 5 5 5 5 5 5 6 6 6 6 6 6 7 7 8 9 11 13 11 10 8 7 8 9 8
1 5 7 6 5 4 5 4 4 9 14 13 9 9 10 8 8 4 1 3 6 9 6 6 7 1 6 9 3 1 3 3 2 4 4 4 5 4 2 3 4 5 4 3 5 5 5 6 4 4 5 4 5 5 3 5 5 4 5 5 6 6 6 6 5 5 5 6 5 6 5 5 4 5 5 5 5 5 5 5 5 5 5 6 5 5 5 6 8 11 11 10 8 7 9 10 9
5 6 6 4 3 5 5 3 0 3 11 12 9 10 8 8 9 8 5 5 7 11 8 5 7 4 5 6 1 2 6 5 2 2 3 4 5 5 3 2 4 6 5 3 4 5 4 5 4 4 6 5 6 5 3 5 4 4 5 6 6 6 6 7 6 6 6 6 6 5 5 5 4 5 5 5 5 5 5 5 5 5 5 4 4 4 4 4 4 7 11 11 9 8 9 9 9
5 6 7 5 3 5 4 4 4 3 8 9 8 6 3 5 10 10 7 4 6 11 8 3 3 5 7 5 0 3 9 6 2 0 -0 4 7 6 5 3 3 5 6 6 5 4 3 4 5 3 4 6 6 6 6 5 5 6 6 6 6 6 7 7 6 5 5 5 4 4 5 4 4 5 5 4 5 5 5 5 5 4 4 4 4 4 4 5 3 4 7 11 12 9 8 8 9
4 4 6 7 6 6 5 5 6 5 4 6 8 5 2 3 7 9 11 10 10 10 7 5 3 4 9 7 1 3 8 7 3 0 -1 4 6 5 6 5 4 5 5 6 6 5 4 4 4 2 2 4 6 7 7 6 6 6 6 6 6 6 6 5 5 5 5 5 5 5 5 5 5 5 6 5 4 5 4 4 5 4 4 4 4 5 5 5 4 3 4 7 11 12 10 8 8
4 4 4 5 6 6 8 7 5 6 2 2 5 5 5 4 4 6 8 9 10 11 9 7 3 3 9 8 4 7 9 8 5 1 -0 2 4 4 5 5 5 5 4 5 6 5 4 4 4 3 4 4 5 6 5 5 5 5 5 5 5 5 6 6 6 6 6 6 6 5 5 5 5 6 7 6 6 5 5 5 5 4 5 4 4 5 5 5 4 2 2 4 7 11 12 10 7
7 6 6 7 9 6 8 10 7 9 5 3 5 4 4 5 6 4 4 6 6 8 8 5 2 3 5 4 7 10 9 8 4 1 -0 -0 3 4 5 6 6 5 4 4 5 5 4 4 5 6 6 5 4 4 3 5 6 5 4 5 6 6 7 7 6 6 6 5 5 5 5 4 4 6 6 5 6 5 5 5 5 5 5 5 4 4 4 4 4 3 3 3 4 6 9 11 9
6 7 7 8 10 6 6 11 11 12 8 7 7 2 2 3 4 4 6 7 4 3 7 5 3 5 3 1 5 7 10 10 5 2 1 2 4 5 5 6 6 6 6 5 4 5 5 4 6 6 6 6 4 3 4 7 6 4 6 7 8 8 6 6 5 5 4 4 5 5 5 4 4 4 4 6 6 5 4 4 4 5 5 5 4 4 4 4 4 4 4 3 3 4 5 8 10
3 4 6 5 7 7 7 9 10 14 10 8 7 4 3 3 3 4 5 7 7 6 7 6 7 13 8 4 5 5 11 12 5 1 2 4 4 4 6 8 7 4 5 6 5 5 4 4 6 7 6 6 4 3 5 7 6 6 7 8 7 6 5 5 5 5 6 5 5 7 6 5 4 4 5 6 6 4 3 4 4 5 5 4 4 5 4 4 4 4 4 4 3 3 3 4 8
2 0 4 7 8 8 8 6 9 12 11 8 7 8 7 6 4 3 5 5 8 8 8 11 11 11 9 10 8 5 12 11 1 -1 1 3 3 3 4 6 7 5 3 4 4 5 4 3 4 5 6 5 4 4 6 8 8 8 8 8 7 6 6 6 6 6 6 6 6 7 8 7 5 4 6 7 6 4 3 4 5 6 6 5 6 5 6 5 4 3 3 3 3 3 4 3 4
2 2 5 8 9 7 5 6 10 9 10 11 7 9 9 7 3 3 7 6 9 10 9 12 11 7 9 11 7 5 13 11 0 -2 -0 1 3 3 3 3 6 6 5 3 3 5 5 5 5 4 5 4 4 5 7 8 7 7 7 7 7 7 6 5 5 5 5 6 7 8 9 9 7 6 7 8 7 5 5 5 5 5 6 6 6 6 8 8 7 6 5 5 3 3 3 3 3
-1 2 3 5 6 6 5 4 9 9 9 12 9 8 6 6 5 4 5 6 10 9 9 10 5 5 8 7 5 6 10 8 1 1 0 1 3 2 3 2 3 6 6 5 3 5 6 6 5 5 4 4 5 5 5 5 5 6 7 7 6 4 4 4 5 5 7 7 7 9 11 12 10 8 8 8 6 6 7 5 3 4 5 5 5 5 7 8 9 9 10 10 7 7 5 4 4
5 1 -2 4 6 5 4 -2 -0 4 6 6 10 10 7 7 6 6 5 8 12 12 18 19 9 7 8 6 7 6 7 8 5 5 3 3 4 2 4 3 4 6 6 5 3 4 4 4 4 3 3 4 5 5 4 5 7 7 7 6 5 4 4 5 5 5 6 5 4 4 8 11 10 8 7 7 7 8 9 6 4 5 5 5 5 4 3 3 4 5 6 7 8 8 7 7 7
12 4 -4 3 8 1 -2 -3 -5 1 8 5 7 10 8 8 5 6 4 3 9 10 14 14 13 16 9 5 8 7 8 9 8 9 7 6 6 4 5 6 7 7 6 5 4 3 2 2 3 3 5 5 5 7 8 8 8 8 7 7 5 4 4 5 5 4 4 2 2 2 5 8 8 7 6 6 7 10 10 8 6 5 5 5 4 3 1 1 0 1 2 2 3 4 4 4 5
7 7 3 2 4 -2 -3 4 4 6 14 9 5 5 5 7 5 5 3 2 5 4 6 7 10 15 11 8 10 10 12 12 11 13 10 8 6 5 7 9 10 8 7 6 5 5 3 4 4 5 6 5 6 8 8 8 7 6 6 6 4 2 3 6 6 5 5 5 5 6 6 5 5 6 6 6 7 9 8 6 5 4 4 2 1 1 3 4 3 3 2 2 2 2 3 3 3
3 7 8 3 -1 -1 2 9 12 13 17 14 8 5 4 4 5 7 5 5 4 0 5 11 10 10 12 12 11 11 12 12 12 11 9 8 7 8 10 10 10 8 8 8 7 8 7 8 6 4 4 4 7 7 5 6 6 6 6 6 4 4 5 4 5 5 6 7 7 7 8 6 4 4 5 6 6 6 6 5 4 3 2 -1 -2 2 6 8 7 4 1 1 4 5 5 4 5
5 4 4 2 -1 0 3 7 11 14 17 17 12 9 8 3 4 9 5 3 4 3 7 11 11 10 11 11 11 10 10 9 9 9 9 8 8 9 10 9 9 8 8 9 11 11 10 8 5 4 4 4 6 6 4 2 4 6 7 7 6 5 4 2 3 5 6 6 7 7 8 7 6 4 5 6 6 5 5 4 3 2 1 1 2 4 5 7 7 4 0 2 6 7 6 6 7
5 3 1 -1 -1 -1 -2 -1 2 6 6 6 7 9 8 3 4 8 4 3 5 5 8 10 12 11 10 11 11 9 8 9 9 10 9 8 8 7 7 9 9 10 9 10 11 11 9 6 4 4 5 7 7 5 4 3 4 6 6 6 5 4 3 3 5 5 5 6 7 7 7 6 6 7 7 7 8 8 7 6 6 5 5 6 7 7 6 6 7 8 6 6 7 7 6 5 7
4 0 -1 0 -0 -2 -3 -3 1 2 -1 3 13 15 9 4 6 7 2 4 6 5 5 6 11 11 10 12 12 10 9 10 11 10 9 9 9 8 8 9 10 12 11 9 7 6 5 5 4 5 8 11 9 8 7 6 6 6 6 5 6 6 5 6 7 7 7 7 8 8 9 9 9 8 8 8 8 8 8 8 8 9 9 9 9 8 7 7 8 10 9 7 5 5 4 5 7
3 -4 -2 4 3 2 2 2 4 2 4 14 19 16 9 5 7 6 2 4 7 7 5 5 7 10 11 11 11 10 11 12 12 12 11 10 10 10 9 10 11 11 11 9 6 4 5 5 5 6 9 11 10 10 8 5 5 5 6 6 7 7 6 7 7 7 7 7 7 8 9 11 11 10 10 11 11 11 12 12 11 11 10 9 8 8 7 7 8 10 11 10 8 7 6 7 7
0 -4 1 4 0 3 4 5 4 4 16 18 10 12 10 4 4 4 5 10 9 7 8 7 5 7 9 11 9 8 11 13 14 13 12 9 9 11 10 10 10 9 10 10 9 7 7 7 7 7 8 9 8 7 6 5 5 5 5 5 5 6 6 6 6 6 6 6 5 5 7 9 10 9 10 11 11 11 13 14 14 13 12 10 9 9 11 13 14 13 14 13 11 9 8 6 3
-1 -2 1 0 1 4 4 6 5 10 24 14 5 16 11 4 4 4 8 12 9 7 9 8 6 6 8 10 8 7 10 12 13 14 13 10 9 10 8 7 7 8 9 9 9 8 7 7 7 6 5 5 5 5 5 6 6 5 5 4 4 4 5 5 5 6 6 5 6 6 7 9 9 6 5 6 6 6 8 9 10 10 10 10 10 9 10 12 13 13 13 12 11 9 8 6 5
0 -2 -5 -3 4 8 7 5 6 15 18 6 8 17 13 12 7 4 9 10 8 9 9 9 6 7 8 8 9 8 8 10 12 13 14 13 10 8 6 6 7 9 10 9 8 7 6 7 7 6 6 6 5 5 4 5 5 4 4 4 5 5 5 5 5 5 5 4 4 5 6 8 8 6 5 5 6 7 8 9 10 10 10 10 11 11 10 10 11 12 12 11 10 9 8 9 11
0 -3 -6 -1 3 2 -1 -3 9 20 9 5 15 14 12 16 10 7 10 9 9 8 8 8 6 7 9 9 9 9 8 9 11 12 13 12 10 9 7 6 6 8 11 10 9 8 7 8 9 8 8 7 4 4 4 4 5 5 5 5 6 6 5 6 5 5 5 4 4 4 4 6 7 6 7 9 10 11 10 9 10 11 11 11 11 12 13 13 13 13 13 13 12 10 9 9 12
4 -0 -2 -0 -4 -6 -3 6 25 21 4 10 13 6 8 10 9 11 11 9 9 8 8 8 6 7 9 10 10 9 8 8 8 9 11 11 10 10 9 8 7 8 10 10 9 9 9 9 9 8 7 6 4 4 4 4 5 5 5 6 6 7 7 6 6 6 6 6 5 5 4 5 7 7 7 8 10 11 10 9 8 8 9 9 8 8 9 10 11 11 12 13 13 13 13 11 10
4 -2 -4 -2 -7 -4 4 18 31 12 1 12 6 1 6 5 7 9 7 6 7 8 8 7 6 7 7 9 10 10 9 8 8 7 8 9 9 8 9 8 7 8 10 10 10 9 9 8 7 6 6 5 4 4 4 4 5 5 5 6 6 6 7 7 7 7 6 7 7 6 5 5 7 8 7 7 7 8 8 8 7 8 8 8 7 6 7 7 7 7 8 9 10 11 13 13 11
6 -2 -5 -3 -9 1 7 13 24 11 4 9 3 1 3 4 7 7 9 6 4 8 8 7 7 7 7 8 9 9 9 9 8 7 6 7 7 6 6 7 6 7 8 9 10 10 8 7 6 5 5 4 4 4 4 4 5 5 5 6 6 6 7 7 8 9 9 9 8 8 7 5 6 8 8 7 7 6 6 7 7 7 8 7 7 7 7 7 7 7 6 6 6 6 8 9 8
11 3 1 -3 -9 4 4 8 22 12 4 4 2 3 0 3 3 2 10 8 4 5 6 9 9 8 9 9 10 10 10 9 8 8 5 3 3 4 4 6 6 6 7 8 8 8 7 6 5 4 4 4 5 5 4 4 5 5 6 6 6 6 6 7 7 8 10 11 9 8 8 6 5 6 7 6 6 6 6 6 6 7 7 7 7 8 8 9 9 8 7 7 6 5 6 6 6
6 1 5 -4 -8 3 1 13 25 10 2 3 5 8 3 2 1 0 5 8 7 4 2 6 7 8 8 8 10 11 11 10 9 9 8 6 4 4 6 6 6 6 7 8 8 8 7 5 4 3 4 4 4 4 3 4 5 5 6 5 5 5 5 6 6 6 8 11 9 8 8 7 6 6 6 5 5 5 5 5 5 5 6 7 7 8 9 8 9 9 7 7 7 6 7 7 7
3 2 3 -7 -6 3 6 19 19 7 5 5 9 11 5 3 3 1 -1 4 9 5 1 2 5 6 6 7 9 11 13 10 9 10 10 10 9 7 7 6 5 5 5 7 9 8 6 4 4 4 4 4 3 3 3 3 5 6 6 4 5 5 5 6 6 7 7 8 8 8 8 8 7 6 5 5 4 4 4 5 6 5 5 6 7 7 8 7 8 8 7 6 8 7 7 8 7
4 4 -1 -6 -1 4 13 22 11 5 6 5 9 7 4 8 9 8 3 3 7 8 6 3 3 4 5 6 6 10 13 12 9 8 9 9 10 9 7 7 5 5 6 6 8 8 6 4 4 4 4 4 3 3 3 4 5 5 5 4 4 4 4 5 5 6 6 6 7 7 7 7 6 5 3 3 4 5 4 4 5 5 5 5 5 6 6 6 6 6 6 6 7 7 7 7 7
2 2 -2 -2 5 9 20 25 12 7 3 1 6 3 5 10 11 13 11 7 6 9 10 6 3 1 3 5 6 8 10 14 11 6 8 6 6 7 6 7 6 6 8 8 9 9 7 5 4 4 4 5 4 5 4 4 4 5 6 5 4 4 3 4 4 4 5 5 7 7 6 5 5 5 4 2 3 4 4 3 4 5 5 6 6 6 5 5 5 5 5 5 6 5 6 7 6
4 6 2 1 8 15 21 22 14 9 6 6 6 1 5 8 9 12 12 11 5 5 10 9 8 5 4 3 5 8 7 13 15 9 8 7 5 5 5 8 8 9 10 9 10 9 7 5 5 4 5 6 5 5 5 4 5 4 5 4 4 4 4 3 3 4 4 5 7 7 6 5 5 5 6 5 3 4 4 4 4 4 4 5 6 7 6 7 5 4 5 5 5 5 4 4 4
4 5 7 7 9 13 15 18 15 6 5 13 15 9 8 4 5 9 7 9 5 3 8 7 8 11 11 6 4 7 6 9 15 13 10 9 8 6 6 8 8 8 8 8 9 8 8 6 6 6 5 6 5 6 6 6 7 6 6 5 5 5 5 5 5 4 4 4 6 7 6 6 6 6 5 5 4 4 4 4 4 4 4 4 5 6 6 7 7 6 5 4 4 4 4 3 2
7 1 2 4 8 13 8 9 11 5 1 6 12 13 14 9 5 7 7 12 8 4 9 8 4 5 9 10 7 7 6 8 13 14 12 12 10 7 7 7 5 6 5 6 8 8 9 8 7 6 3 4 5 7 7 7 8 8 7 7 7 8 8 8 8 7 4 3 5 6 6 5 6 6 4 4 4 4 4 4 4 3 3 4 4 5 5 6 7 7 7 5 5 4 4 3 2
10 -3 -5 -1 9 15 8 10 11 4 3 4 9 6 5 13 17 10 5 11 9 3 8 8 5 5 5 7 9 8 5 5 8 11 13 13 12 9 8 6 4 5 4 4 6 7 8 7 5 3 3 4 6 8 8 8 8 8 9 9 10 11 11 11 10 9 6 4 4 4 5 6 5 5 4 4 3 3 4 4 4 4 4 4 3 3 4 4 5 6 7 7 7 6 5 4 3
9 2 5 6 9 8 5 14 8 -3 2 6 9 1 -8 6 22 18 9 7 6 8 11 5 4 7 6 5 4 4 5 3 4 7 10 12 13 11 9 9 5 4 4 5 6 7 7 6 5 5 6 6 8 8 7 7 8 9 9 10 11 11 11 11 11 10 8 6 5 5 6 6 6 6 5 5 4 5 5 4 5 4 4 4 4 4 3 4 4 4 5 6 6 6 5 5 4
11 10 13 7 4 1 -1 5 -1 -5 1 1 6 6 -5 -3 11 18 15 7 1 7 12 7 7 6 4 5 3 2 3 3 3 5 5 7 11 12 11 11 9 7 7 7 7 7 7 7 7 7 8 7 8 8 7 7 7 7 7 7 8 8 8 10 10 9 8 7 7 7 7 7 8 8 6 6 6 6 6 6 5 4 5 5 5 5 4 4 4 4 4 4 4 4 5 5 4
6 4 9 3 -1 1 -2 -5 -4 -2 -1 1 6 6 -2 -8 -1 7 6 2 -0 5 12 13 9 5 3 4 5 6 4 1 3 5 4 4 6 11 12 12 12 10 9 9 7 7 7 6 6 6 5 5 6 6 6 6 4 3 3 3 3 3 4 6 6 5 4 4 4 5 5 5 5 6 6 6 5 6 5 5 5 5 6 5 5 5 5 5 5 5 5 5 4 4 4 4 4
-5 -0 5 0 -3 -1 -4 -10 -5 -3 -2 3 1 1 3 -5 -4 0 -3 -0 1 2 14 20 10 5 6 4 4 8 7 3 4 5 4 3 3 5 9 11 12 11 11 9 7 6 6 5 5 5 4 4 5 5 4 3 2 1 1 1 2 2 3 3 4 4 3 3 3 4 4 3 3 3 3 4 4 5 5 5 5 5 5 4 4 5 5 5 6 6 7 6 6 6 5 5 5
-7 3 3 0 -1 -4 -4 -4 -4 -5 0 4 -2 -0 4 -5 -6 -0 -0 4 3 -0 13 23 13 6 7 6 6 8 7 5 5 7 5 3 3 2 4 8 11 11 10 8 6 5 5 5 4 4 4 4 4 3 3 2 2 1 1 2 2 3 3 3 4 4 4 4 4 4 4 4 3 3 3 4 4 4 5 5 5 5 5 4 5 4 4 4 5 6 7 7 7 6 6 6 6
-4 2 -0 0 0 -4 -5 -6 -10 -4 7 7 2 -1 -5 -5 0 2 1 3 1 -0 12 20 12 9 10 10 12 13 11 8 5 5 5 4 4 3 2 4 8 10 10 8 6 5 5 5 4 3 3 3 3 2 2 2 2 2 2 2 3 3 3 3 3 3 3 4 4 4 4 4 3 3 3 3 3 3 4 5 6 6 6 6 6 5 5 4 4 5 6 6 6 6 6 7 7
-4 -0 -1 -5 -4 -0 2 -1 -6 -1 0 -8 -4 -2 -6 -1 4 3 5 4 2 4 14 19 10 8 11 9 11 15 15 13 6 3 6 8 7 5 4 3 5 7 8 8 6 6 6 4 4 4 3 2 2 2 2 2 2 2 2 2 2 2 2 3 2 3 3 3 4 4 4 4 4 3 3 3 3 3 3 3 5 6 7 8 7 7 6 6 5 4 5 5 5 6 7 7 7
-10 -0 2 -6 -4 1 3 5 3 -0 -9 -11 5 11 2 2 3 3 4 3 7 13 14 16 11 10 12 8 7 10 13 13 10 8 9 8 6 6 5 5 6 6 6 7 6 5 6 5 4 4 3 3 2 2 2 2 2 2 2 2 2 2 2 2 2 2 2 2 3 3 3 4 4 4 3 3 3 3 2 3 3 5 7 8 9 8 8 7 6 5 5 5 5 5 6 7 7
-3 5 3 -3 2 4 -1 -0 -2 -4 -3 1 14 14 4 3 -1 -5 5 14 16 13 8 6 8 9 9 6 5 6 10 11 10 11 11 9 7 3 4 8 10 8 6 5 5 5 5 4 5 5 4 3 3 3 2 2 2 2 3 3 2 2 1 2 3 4 3 3 2 2 3 3 3 4 4 4 4 4 4 3 4 6 7 9 10 9 10 9 7 6 5 5 5 5 5 6 7
8 12 7 2 5 5 0 -1 -4 -2 6 9 12 10 1 1 -2 -5 10 21 11 3 2 4 6 7 6 5 4 6 13 15 12 10 9 9 8 2 3 10 13 10 8 6 5 4 3 3 4 6 6 5 4 5 5 4 4 3 3 2 1 -0 1 2 4 4 4 4 4 3 4 5 4 4 4 4 4 4 5 6 7 8 9 9 10 10 10 9 7 5 5 6 5 4 5 6 7
10 12 8 4 6 3 -3 -0 0 -0 4 7 8 7 1 -0 0 4 11 8 1 -1 -1 -1 -1 1 6 6 5 8 12 13 12 13 14 8 7 10 11 10 9 8 8 9 8 6 5 4 3 4 5 4 4 4 4 4 4 3 2 1 -0 0 2 4 4 3 3 4 6 7 7 7 6 6 5 4 4 5 6 7 8 10 11 10 9 10 10 9 7 5 6 6 6 5 6 7 7
11 13 5 -2 -1 -1 -2 1 1 -1 0 0 2 8 11 4 -1 7 10 -1 -4 -3 -7 -6 -5 0 10 7 3 3 2 6 5 11 27 21 9 13 14 7 5 6 8 8 8 8 9 7 6 7 6 4 4 5 5 4 3 3 3 3 4 6 7 8 7 6 6 8 11 11 9 8 8 6 4 4 4 6 8 9 10 11 11 10 10 11 9 8 6 6 6 6 6 6 7 8 9
14 17 5 -4 -4 1 3 -0 -3 -0 2 -1 -1 3 6 2 -3 4 8 2 -0 -2 -3 4 1 0 8 6 3 -2 -4 8 5 7 32 34 17 14 11 5 4 4 3 3 4 6 8 10 10 9 8 8 10 10 10 10 10 9 9 9 10 13 13 12 10 10 11 13 12 10 8 7 7 5 5 5 6 7 9 9 10 11 11 9 9 9 8 7 6 6 7 6 5 6 8 9 9
16 19 6 -2 -4 2 5 -0 -2 1 3 1 1 4 3 1 -2 0 5 2 -2 -6 -0 13 9 -1 5 9 7 1 1 10 8 7 22 23 13 9 5 4 5 5 4 3 5 6 6 8 8 7 8 10 11 12 12 13 13 13 12 13 16 17 15 12 11 12 12 11 9 7 6 5 6 5 5 6 7 9 10 9 10 10 9 8 8 8 7 7 6 5 5 4 5 6 8 8 8
11 14 4 -2 -1 3 1 2 5 -1 -3 1 4 5 2 -1 -1 1 6 4 -0 -1 2 8 2 -5 8 17 10 9 12 14 14 15 17 14 10 5 1 -0 -1 2 7 7 6 7 8 7 6 6 8 9 10 11 12 12 12 13 12 14 17 15 10 8 9 9 9 9 6 5 5 5 6 6 7 9 9 9 9 10 11 10 8 7 7 8 7 6 4 4 4 4 6 7 9 9 9
10 8 -2 -1 6 2 -8 -2 6 0 0 6 7 10 8 1 -1 2 5 4 7 15 13 7 0 -3 8 14 9 11 14 13 14 11 8 13 19 16 13 10 4 4 6 7 8 8 8 9 9 8 7 9 11 10 10 11 10 12 12 13 14 12 8 6 7 8 8 8 7 6 7 7 6 7 8 8 7 8 10 11 11 9 7 7 7 7 7 5 4 4 5 6 8 8 9 9 9
10 5 -1 5 8 3 -4 -5 -3 -3 5 9 6 11 16 9 4 6 4 -2 -1 7 13 15 13 8 8 8 6 6 6 7 5 0 2 11 16 16 19 22 23 20 13 9 9 8 9 12 11 10 7 8 9 9 9 9 7 8 8 8 9 10 10 8 7 8 9 10 10 8 7 7 7 8 8 7 6 8 10 10 10 7 6 6 7 7 6 4 3 4 5 6 7 6 7 8 9
7 -1 0 4 -0 1 4 -3 -4 -2 2 5 0 -2 2 4 5 8 13 15 10 4 6 10 7 4 5 5 1 -3 -1 4 -0 -1 8 10 6 8 14 19 24 25 22 18 14 10 11 12 10 8 7 6 6 6 6 6 6 6 6 5 5 6 9 11 10 9 9 11 11 8 6 5 7 8 7 5 5 8 9 9 8 6 6 7 7 7 6 4 4 4 5 5 5 5 7 9 9
4 -1 7 14 8 6 3 -7 -3 6 3 2 0 -8 -9 -6 -10 -16 -12 -3 1 -1 6 14 17 17 13 7 3 -2 -0 6 2 0 8 7 5 10 16 20 22 19 18 16 13 12 11 11 9 7 5 3 2 5 6 7 6 4 5 6 5 5 7 8 10 9 8 9 9 7 4 3 7 10 9 4 3 6 8 8 7 6 6 6 7 7 6 4 4 5 6 5 5 7 8 9 9
5 6 14 22 16 7 4 1 1 5 5 4 2 -6 -6 3 5 0 -4 -5 3 14 15 11 13 17 12 5 3 -1 0 7 3 -2 5 9 10 12 11 15 21 19 15 9 7 10 8 6 6 5 3 1 2 6 6 5 4 4 7 7 3 4 7 7 9 8 6 7 7 7 5 4 7 9 7 4 2 3 5 7 7 6 6 6 6 7 5 4 6 5 4 5 6 7 8 8 9
7 10 10 13 12 -1 -2 9 12 6 2 4 5 -2 1 19 24 18 19 21 23 24 17 9 10 9 6 4 0 -3 2 7 0 -2 8 12 9 8 7 10 17 20 18 13 8 7 6 5 5 4 2 2 4 6 4 4 4 3 7 9 4 4 7 7 7 7 7 6 6 9 7 4 7 10 10 7 2 1 5 7 7 6 6 6 6 6 6 6 6 5 3 6 10 9 8 8 8
8 10 5 2 7 -0 -5 5 12 8 4 2 1 -2 6 22 13 1 14 24 13 3 3 9 10 3 1 2 -0 2 6 2 -2 4 12 12 8 8 11 14 16 14 13 14 11 8 7 5 4 3 3 4 5 4 4 6 5 5 11 12 5 4 7 6 5 6 7 6 6 9 9 6 8 11 11 9 3 1 6 7 6 5 4 5 6 7 8 7 6 4 4 7 10 9 7 7 8
Height
5898 5898 5898 5897 5897 5896 5896 5895 5896 5897 5897 5897 5896 5896 5896 5895 5896 5896 5896 5895 5895 5896 5896 5896 5896 5896 5895 5896 5896 5896 5898 5897 5897 5898 5899 5901 5901 5900 5900 5899 5900 5901 5902 5903 5904 5904 5904 5905 5906 5907 5907 5907 5907 5908 5909 5910 5910 5910 5911 5912 5912 5911 5911 5911 5912 5912 5912 5912 5912 5912 5912 5912 5911 5911 5911 5911 5912 5912 5912 5912 5912 5912 5912 5912 5911 5911 5911 5910 5910 5909 5909 5909 5909 5910 5911 5912 5912
5900 5900 5899 5898 5898 5898 5897 5897 5898 5898 5898 5898 5897 5897 5897 5897 5897 5898 5898 5897 5897 5897 5897 5897 5898 5897 5896 5897 5898 5898 5899 5899 5898 5898 5900 5902 5902 5902 5902 5901 5901 5902 5903 5904 5904 5905 5906 5906 5906 5907 5907 5907 5908 5909 5910 5910 5911 5911 5912 5912 5912 5911 5911 5912 5912 5913 5913 5913 5912 5912 5912 5912 5912 5912 5912 5912 5912 5912 5912 5913 5913 5912 5912 5912 5912 5911 5911 5910 5909 5909 5909 5909 5909 5910 5911 5911 5911
5902 5901 5901 5899 5899 5899 5899 5899 5899 5898 5899 5899 5898 5898 5897 5897 5899 5899 5899 5899 5898 5899 5898 5898 5899 5899 5897 5897 5899 5900 5901 5900 5899 5899 5901 5903 5903 5904 5904 5904 5903 5903 5903 5904 5905 5906 5906 5906 5906 5906 5906 5907 5908 5909 5910 5911 5911 5912 5912 5912 5911 5911 5912 5912 5913 5913 5913 5913 5913 5913 5913 5913 5913 5913 5912 5912 5913 5913 5913 5913 5913 5913 5912 5912 5911 5911 5910 5910 5909 5909 5909 5909 5909 5910 5910 5911 5911
5903 5903 5902 5901 5901 5901 5900 5901 5900 5899 5900 5899 5898 5897 5896 5897 5899 5900 5900 5900 5900 5900 5900 5899 5899 5900 5900 5899 5900 5902 5902 5902 5900 5899 5902 5904 5904 5905 5905 5905 5905 5905 5904 5905 5905 5906 5906 5906 5906 5906 5906 5907 5908 5909 5910 5910 5911 5911 5911 5911 5911 5912 5912 5912 5913 5913 5913 5913 5913 5913 5913 5913 5913 5913 5913 5913 5913 5913 5913 5913 5913 5913 5912 5912 5911 5911 5910 5909 5909 5909 5909 5909 5909 5910 5910 5911 5911
5904 5904 5904 5903 5903 5903 5903 5902 5902 5901 5900 5899 5899 5897 5897 5898 5899 5900 5901 5901 5901 5901 5901 5900 5900 5900 5902 5902 5902 5903 5903 5903 5902 5899 5902 5905 5906 5906 5906 5906 5906 5906 5906 5905 5905 5905 5906 5906 5907 5907 5908 5908 5909 5910 5910 5910 5910 5911 5911 5912 5912 5913 5913 5913 5913 5913 5913 5913 5913 5913 5913 5913 5913 5913 5913 5913 5913 5913 5913 5913 5913 5912 5912 5911 5911 5910 5910 5909 5909 5909 5909 5909 5910 5910 5910 5911 5911
5906 5905 5905 5905 5905 5905 5904 5904 5903 5903 5901 5900 5901 5899 5899 5900 5900 5901 5902 5903 5903 5902 5902 5901 5901 5901 5902 5904 5904 5905 5904 5904 5903 5901 5902 5905 5907 5906 5907 5907 5907 5907 5906 5906 5906 5906 5906 5907 5908 5908 5909 5910 5910 5911 5911 5911 5912 5912 5913 5913 5914 5914 5914 5913 5913 5913 5913 5913 5913 5913 5913 5913 5913 5913 5913 5914 5914 5914 5914 5913 5913 5912 5912 5911 5911 5910 5910 5909 5909 5909 5909 5910 5910 5911 5911 5911 5911
5907 5907 5906 5906 5906 5906 5905 5906 5905 5904 5902 5902 5903 5902 5901 5902 5902 5902 5902 5903 5903 5903 5903 5902 5902 5902 5903 5904 5905 5906 5906 5906 5905 5903 5903 5905 5907 5907 5907 5907 5907 5907 5907 5907 5907 5908 5908 5908 5909 5909 5910 5910 5911 5911 5912 5912 5913 5914 5914 5914 5914 5914 5914 5914 5914 5913 5913 5913 5913 5913 5913 5913 5913 5913 5914 5914 5914 5914 5913 5913 5913 5912 5912 5912 5911 5911 5910 5909 5909 5909 5909 5910 5910 5911 5911 5911 5911
5908 5908 5908 5907 5907 5907 5907 5907 5906 5905 5903 5903 5904 5903 5903 5903 5903 5903 5903 5903 5903 5904 5904 5903 5904 5904 5904 5905 5906 5906 5907 5907 5906 5905 5905 5905 5907 5907 5907 5907 5907 5907 5908 5908 5909 5909 5909 5909 5909 5909 5910 5911 5912 5912 5913 5914 5914 5915 5914 5915 5915 5915 5915 5914 5914 5914 5913 5913 5913 5913 5913 5913 5913 5914 5914 5914 5914 5914 5913 5913 5912 5912 5912 5912 5911 5911 5911 5910 5910 5910 5909 5909 5910 5911 5911 5911 5910
5909 5909 5908 5907 5907 5908 5908 5909 5908 5907 5905 5904 5904 5904 5904 5904 5904 5904 5904 5904 5904 5904 5904 5904 5905 5905 5905 5906 5907 5907 5908 5908 5907 5906 5906 5907 5907 5907 5908 5908 5908 5908 5908 5909 5910 5910 5911 5911 5911 5911 5913 5914 5914 5914 5914 5915 5915 5915 5915 5915 5915 5915 5914 5914 5914 5914 5914 5914 5913 5913 5913 5914 5914 5914 5914 5914 5914 5913 5913 5913 5912 5912 5912 5912 5912 5912 5911 5911 5910 5910 5910 5909 5909 5911 5911 5911 5911
5909 5909 5909 5909 5909 5909 5909 5909 5909 5909 5907 5906 5905 5905 5905 5905 5904 5904 5904 5904 5905 5905 5905 5906 5906 5906 5906 5907 5908 5908 5909 5908 5908 5908 5908 5908 5907 5908 5908 5908 5909 5909 5909 5909 5910 5911 5911 5912 5912 5914 5915 5915 5915 5915 5915 5915 5915 5915 5915 5914 5914 5914 5914 5914 5914 5914 5914 5914 5914 5914 5914 5914 5914 5914 5914 5914 5913 5913 5913 5913 5913 5912 5912 5912 5912 5912 5912 5911 5911 5910 5910 5910 5909 5910 5910 5910 5911
5910 5910 5910 5910 5910 5910 5910 5910 5910 5910 5909 5908 5907 5907 5906 5905 5905 5905 5905 5905 5906 5905 5905 5906 5906 5906 5907 5908 5908 5909 5909 5909 5909 5908 5909 5909 5908 5908 5908 5909 5909 5910 5910 5910 5910 5911 5911 5912 5913 5913 5914 5914 5914 5914 5914 5914 5915 5914 5914 5914 5914 5914 5915 5915 5915 5915 5915 5914 5914 5914 5914 5914 5914 5914 5913 5913 5913 5913 5913 5913 5913 5913 5912 5912 5912 5912 5912 5912 5911 5911 5911 5910 5910 5910 5910 5910 5910
5912 5911 5911 5911 5911 5911 5911 5910 5911 5910 5910 5910 5909 5909 5908 5907 5907 5907 5907 5907 5907 5906 5906 5907 5907 5907 5908 5908 5909 5909 5910 5910 5909 5909 5909 5909 5909 5909 5909 5909 5910 5910 5910 5910 5911 5911 5911 5912 5912 5913 5913 5913 5913 5914 5914 5914 5914 5914 5914 5915 5915 5915 5915 5915 5915 5915 5915 5915 5915 5914 5914 5914 5914 5913 5913 5913 5913 5913 5913 5913 5913 5912 5912 5912 5912 5912 5912 5912 5911 5911 5911 5910 5910 5910 5909 5909 5910
5913 5912 5911 5911 5912 5912 5912 5911 5912 5911 5911 5911 5911 5911 5910 5909 5909 5909 5909 5909 5908 5908 5908 5908 5908 5908 5908 5909 5909 5910 5911 5910 5910 5909 5909 5910 5910 5910 5910 5910 5910 5911 5911 5911 5911 5912 5912 5912 5913 5913 5913 5913 5913 5914 5914 5914 5914 5915 5915 5915 5915 5915 5915 5915 5915 5915 5915 5915 5915 5914 5914 5914 5914 5913 5913 5913 5913 5913 5913 5913 5912 5912 5912 5912 5912 5912 5912 5912 5911 5911 5910 5910 5910 5910 5909 5909 5909
5914 5913 5912 5912 5912 5912 5912 5912 5912 5912 5912 5912 5912 5913 5912 5911 5911 5911 5911 5910 5910 5909 5909 5909 5909 5909 5909 5909 5910 5910 5911 5911 5911 5910 5910 5910 5911 5911 5911 5911 5911 5911 5912 5912 5912 5912 5913 5913 5913 5913 5913 5914 5914 5914 5914 5915 5915 5915 5915 5915 5915 5915 5915 5915 5915 5915 5915 5915 5915 5914 5914 5914 5913 5913 5913 5913 5913 5913 5912 5912 5912 5912 5912 5912 5912 5912 5911 5911 5911 5910 5910 5910 5910 5910 5909 5909 5909
5915 5914 5913 5912 5912 5912 5912 5913 5913 5913 5914 5914 5913 5914 5913 5913 5913 5913 5912 5912 5911 5911 5910 5910 5910 5910 5910 5910 5910 5911 5911 5911 5911 5911 5911 5911 5912 5912 5912 5912 5912 5912 5912 5913 5913 5913 5913 5913 5913 5914 5914 5914 5915 5915 5915 5915 5916 5916 5916 5916 5916 5916 5916 5916 5916 5916 5915 5915 5915 5914 5914 5914 5913 5913 5913 5913 5913 5913 5912 5912 5912 5912 5912 5912 5911 5911 5911 5911 5910 5910 5909 5909 5909 5909 5909 5908 5908
5915 5915 5914 5913 5913 5912 5912 5913 5913 5914 5914 5915 5914 5914 5914 5914 5914 5914 5913 5913 5912 5912 5912 5912 5911 5911 5911 5911 5911 5912 5912 5912 5912 5912 5912 5912 5912 5912 5912 5912 5912 5912 5913 5913 5913 5914 5914 5914 5914 5914 5915 5915 5915 5916 5916 5916 5916 5916 5917 5917 5917 5917 5917 5917 5916 5916 5915 5915 5914 5914 5914 5914 5913 5913 5913 5913 5913 5913 5912 5912 5911 5911 5911 5911 5911 5911 5911 5910 5910 5910 5909 5909 5909 5909 5908 5908 5908
5915 5915 5915 5914 5914 5913 5913 5914 5914 5915 5915 5916 5915 5915 5915 5915 5915 5915 5914 5914 5913 5913 5913 5913 5913 5912 5913 5912 5912 5912 5913 5913 5913 5913 5913 5913 5913 5913 5913 5913 5913 5913 5913 5914 5914 5914 5914 5914 5915 5915 5915 5916 5916 5916 5917 5917 5917 5917 5917 5918 5918 5918 5918 5917 5917 5916 5915 5915 5914 5914 5914 5914 5913 5913 5913 5913 5913 5913 5912 5912 5911 5911 5911 5911 5911 5910 5910 5910 5909 5909 5909 5908 5908 5908 5907 5907 5907
5915 5915 5915 5914 5914 5914 5914 5914 5915 5916 5917 5917 5917 5917 5917 5916 5916 5916 5915 5914 5914 5914 5914 5914 5914 5914 5914 5913 5913 5913 5914 5914 5914 5913 5913 5913 5913 5913 5913 5913 5913 5913 5914 5914 5914 5914 5915 5915 5915 5915 5916 5916 5917 5917 5917 5917 5917 5918 5918 5918 5918 5918 5918 5917 5916 5916 5915 5915 5914 5914 5914 5914 5914 5913 5913 5913 5913 5913 5912 5912 5911 5911 5911 5910 5910 5910 5909 5909 5909 5908 5908 5907 5907 5907 5906 5906 5906
5915 5915 5915 5914 5914 5914 5914 5915 5915 5915 5916 5916 5918 5919 5918 5917 5917 5916 5915 5914 5915 5915 5915 5915 5915 5914 5914 5914 5914 5914 5914 5914 5914 5914 5914 5914 5914 5914 5914 5914 5914 5914 5914 5914 5914 5915 5915 5915 5916 5916 5917 5917 5917 5918 5918 5918 5918 5918 5918 5918 5918 5918 5918 5917 5916 5916 5915 5915 5914 5914 5914 5914 5914 5913 5913 5913 5913 5912 5912 5911 5911 5911 5910 5910 5909 5909 5908 5908 5907 5907 5907 5906 5906 5906 5905 5905 5905
5915 5915 5915 5915 5915 5915 5915 5915 5915 5915 5915 5916 5918 5919 5919 5918 5916 5915 5915 5915 5915 5915 5915 5915 5915 5915 5915 5915 5915 5915 5915 5915 5915 5914 5914 5914 5915 5915 5914 5914 5915 5915 5915 5915 5915 5915 5916 5916 5917 5918 5918 5918 5918 5918 5918 5918 5918 5919 5919 5918 5918 5918 5917 5917 5916 5916 5915 5915 5915 5915 5915 5915 5914 5914 5913 5913 5912 5912 5912 5911 5911 5910 5910 5909 5909 5908 5908 5907 5907 5906 5906 5906 5905 5905 5904 5904 5904
5915 5915 5915 5915 5915 5916 5915 5915 5915 5915 5915 5916 5918 5919 5918 5917 5916 5915 5915 5915 5916 5915 5915 5915 5915 5915 5915 5916 5916 5916 5916 5916 5915 5915 5915 5915 5915 5915 5915 5915 5916 5916 5916 5916 5916 5916 5917 5917 5918 5919 5919 5919 5919 5919 5919 5919 5919 5919 5919 5919 5918 5918 5918 5917 5917 5917 5916 5915 5915 5915 5915 5915 5914 5914 5913 5913 5912 5912 5912 5911 5911 5910 5910 5909 5908 5907 5907 5907 5906 5906 5905 5905 5904 5904 5903 5903 5903
5914 5915 5915 5915 5915 5916 5916 5915 5916 5915 5916 5916 5918 5919 5918 5917 5916 5915 5915 5916 5916 5915 5915 5915 5915 5916 5916 5916 5917 5917 5917 5916 5916 5916 5916 5916 5916 5916 5916 5916 5917 5917 5917 5917 5917 5917 5918 5918 5919 5919 5919 5919 5919 5919 5919 5920 5920 5920 5919 5919 5919 5918 5918 5918 5917 5917 5916 5916 5915 5915 5915 5915 5914 5914 5913 5913 5913 5912 5912 5911 5911 5910 5909 5908 5908 5907 5907 5906 5906 5905 5905 5904 5904 5903 5903 5902 5902
5914 5914 5914 5914 5914 5915 5916 5916 5916 5915 5915 5916 5917 5919 5918 5917 5917 5916 5916 5916 5916 5916 5916 5915 5915 5916 5916 5917 5917 5918 5917 5917 5917 5917 5917 5917 5917 5917 5917 5917 5918 5918 5918 5918 5918 5918 5919 5919 5919 5920 5920 5920 5920 5920 5920 5920 5920 5920 5920 5920 5919 5919 5918 5918 5918 5917 5917 5916 5916 5915 5915 5915 5914 5914 5914 5913 5913 5912 5912 5911 5911 5910 5909 5908 5907 5907 5906 5906 5905 5904 5904 5903 5903 5902 5902 5901 5901
5914 5913 5912 5913 5914 5914 5916 5916 5916 5915 5915 5916 5918 5919 5918 5918 5918 5917 5917 5917 5916 5916 5916 5916 5916 5916 5916 5917 5917 5918 5918 5918 5918 5918 5917 5917 5917 5918 5918 5918 5919 5919 5919 5919 5919 5919 5920 5920 5920 5921 5921 5921 5921 5921 5921 5921 5921 5921 5920 5920 5920 5920 5919 5919 5918 5918 5917 5917 5916 5916 5915 5915 5915 5914 5914 5913 5913 5913 5912 5911 5910 5910 5909 5908 5907 5907 5906 5905 5905 5904 5903 5902 5902 5901 5901 5900 5899
5914 5912 5911 5912 5913 5914 5915 5915 5915 5915 5915 5917 5917 5918 5918 5918 5917 5917 5917 5917 5916 5916 5916 5916 5916 5916 5917 5917 5917 5918 5918 5919 5919 5918 5918 5918 5918 5918 5919 5919 5919 5920 5920 5920 5920 5920 5921 5921 5921 5922 5922 5922 5922 5922 5921 5921 5921 5921 5921 5920 5920 5920 5920 5919 5919 5918 5917 5917 5916 5916 5915 5915 5915 5915 5914 5914 5914 5913 5913 5912 5911 5910 5909 5908 5907 5906 5906 5905 5904 5903 5902 5901 5901 5900 5900 5899 5898
5912 5910 5910 5911 5912 5914 5915 5916 5916 5916 5916 5917 5917 5917 5917 5916 5916 5916 5916 5916 5916 5916 5916 5916 5917 5917 5917 5917 5918 5918 5919 5919 5919 5919 5919 5919 5919 5919 5920 5920 5920 5920 5920 5921 5921 5921 5921 5922 5922 5922 5922 5922 5922 5922 5922 5922 5922 5921 5921 5921 5921 5920 5920 5920 5919 5918 5918 5917 5916 5916 5916 5915 5915 5915 5914 5914 5914 5914 5913 5912 5911 5910 5909 5908 5907 5907 5906 5905 5904 5903 5902 5901 5900 5900 5899 5899 5898
5910 5908 5910 5911 5912 5914 5915 5916 5917 5917 5918 5917 5917 5917 5916 5916 5916 5916 5916 5917 5917 5917 5917 5917 5917 5918 5918 5918 5918 5919 5919 5919 5919 5919 5919 5919 5920 5920 5920 5920 5920 5921 5921 5921 5921 5922 5922 5922 5922 5923 5923 5923 5923 5922 5922 5922 5922 5922 5921 5921 5921 5920 5920 5919 5919 5918 5918 5917 5917 5916 5916 5915 5915 5915 5915 5915 5914 5913 5913 5912 5911 5910 5909 5909 5908 5907 5906 5906 5905 5903 5902 5902 5901 5899 5899 5899 5898
5908 5907 5910 5911 5913 5914 5915 5917 5918 5918 5918 5917 5917 5916 5916 5916 5916 5916 5917 5917 5917 5917 5917 5917 5918 5918 5918 5918 5919 5919 5919 5919 5919 5919 5920 5920 5920 5920 5920 5921 5921 5921 5921 5922 5922 5922 5923 5923 5923 5923 5923 5923 5923 5922 5922 5922 5922 5922 5921 5921 5921 5920 5920 5919 5919 5918 5918 5918 5917 5917 5916 5915 5915 5915 5915 5915 5914 5913 5912 5912 5911 5910 5910 5909 5908 5907 5906 5905 5905 5903 5902 5902 5901 5899 5899 5899 5898
5907 5908 5910 5912 5914 5915 5916 5917 5918 5918 5917 5917 5917 5917 5916 5916 5916 5917 5918 5918 5918 5918 5918 5918 5918 5918 5918 5919 5919 5919 5919 5919 5919 5920 5920 5920 5920 5920 5921 5921 5921 5922 5922 5923 5923 5923 5923 5923 5923 5923 5923 5923 5923 5923 5922 5922 5922 5922 5921 5921 5921 5920 5920 5919 5919 5918 5918 5918 5918 5917 5917 5916 5916 5915 5915 5914 5913 5913 5912 5911 5911 5910 5910 5909 5908 5908 5906 5905 5904 5903 5901 5901 5900 5899 5899 5898 5898
5907 5908 5911 5913 5914 5915 5916 5917 5919 5918 5917 5917 5918 5918 5917 5917 5917 5918 5919 5919 5918 5918 5918 5918 5918 5918 5918 5919 5919 5919 5919 5920 5920 5920 5920 5920 5920 5920 5921 5921 5921 5922 5922 5923 5923 5923 5923 5923 5923 5923 5923 5923 5923 5923 5923 5922 5922 5922 5921 5921 5921 5920 5920 5920 5919 5919 5919 5918 5918 5917 5917 5916 5916 5915 5915 5914 5913 5913 5912 5911 5910 5910 5909 5908 5908 5907 5906 5904 5904 5903 5902 5901 5900 5899 5899 5898 5897
5908 5909 5911 5913 5915 5916 5917 5918 5919 5919 5917 5917 5918 5918 5918 5918 5918 5919 5919 5919 5918 5918 5918 5918 5918 5918 5919 5919 5919 5920 5920 5920 5920 5920 5920 5920 5920 5920 5921 5921 5921 5922 5922 5923 5923 5923 5924 5924 5924 5924 5923 5923 5923 5923 5923 5923 5923 5922 5922 5921 5921 5921 5921 5920 5920 5919 5919 5918 5918 5917 5917 5916 5916 5915 5914 5914 5913 5913 5912 5911 5910 5910 5909 5907 5906 5906 5905 5904 5903 5903 5902 5901 5900 5899 5898 5897 5896
5906 5908 5911 5913 5915 5917 5917 5918 5919 5918 5917 5918 5918 5919 5919 5919 5919 5920 5920 5919 5919 5918 5918 5918 5918 5918 5918 5919 5920 5920 5920 5920 5920 5920 5920 5920 5920 5921 5921 5921 5922 5922 5922 5922 5923 5923 5924 5924 5924 5924 5924 5924 5923 5923 5923 5923 5923 5922 5922 5922 5922 5921 5921 5921 5920 5920 5919 5918 5918 5917 5917 5916 5916 5915 5915 5913 5912 5913 5912 5910 5910 5909 5908 5907 5906 5905 5904 5903 5902 5902 5901 5900 5900 5899 5898 5897 5896
5905 5907 5911 5913 5915 5917 5918 5919 5919 5918 5918 5918 5919 5920 5920 5920 5921 5921 5921 5920 5919 5918 5918 5918 5918 5918 5919 5919 5920 5921 5921 5921 5921 5920 5920 5920 5920 5920 5921 5921 5922 5922 5922 5923 5923 5923 5923 5924 5924 5924 5924 5924 5924 5924 5923 5923 5923 5922 5922 5922 5922 5922 5921 5921 5920 5920 5919 5919 5918 5917 5917 5916 5915 5915 5914 5913 5912 5912 5911 5910 5909 5908 5907 5906 5905 5904 5903 5902 5901 5901 5900 5900 5899 5898 5897 5897 5896
5905 5906 5910 5913 5915 5916 5918 5919 5920 5919 5918 5918 5919 5921 5921 5922 5922 5922 5921 5921 5920 5919 5919 5919 5919 5919 5919 5920 5920 5921 5921 5921 5922 5921 5921 5921 5921 5921 5921 5921 5922 5922 5922 5923 5923 5923 5923 5924 5924 5924 5924 5924 5924 5923 5923 5923 5922 5922 5922 5922 5922 5922 5921 5921 5920 5920 5919 5919 5918 5917 5916 5915 5915 5915 5914 5913 5913 5912 5910 5909 5908 5907 5906 5905 5905 5904 5903 5902 5901 5900 5900 5899 5899 5898 5897 5896 5895
5905 5906 5910 5912 5914 5916 5917 5919 5920 5919 5918 5918 5920 5921 5922 5922 5922 5921 5921 5920 5919 5919 5920 5920 5919 5919 5920 5920 5921 5921 5922 5922 5923 5923 5922 5922 5921 5921 5921 5921 5921 5922 5922 5922 5922 5922 5923 5923 5923 5924 5924 5924 5923 5923 5923 5922 5922 5922 5922 5922 5922 5922 5921 5921 5920 5920 5919 5918 5917 5916 5916 5915 5914 5914 5913 5912 5912 5910 5909 5908 5907 5906 5905 5905 5904 5903 5902 5901 5900 5899 5899 5899 5898 5897 5896 5895 5894
5907 5907 5910 5912 5914 5916 5917 5918 5919 5919 5918 5919 5921 5922 5922 5922 5921 5921 5920 5919 5919 5919 5919 5919 5919 5919 5920 5921 5921 5922 5922 5922 5922 5923 5923 5922 5922 5921 5921 5921 5921 5921 5921 5921 5922 5922 5922 5922 5922 5923 5923 5923 5923 5923 5923 5923 5923 5923 5922 5922 5922 5921 5921 5920 5920 5919 5918 5918 5917 5916 5915 5914 5914 5913 5912 5911 5910 5909 5908 5908 5907 5906 5905 5904 5904 5903 5901 5900 5899 5898 5898 5897 5897 5896 5895 5893 5892
5906 5907 5910 5911 5913 5914 5915 5917 5918 5918 5918 5919 5920 5921 5922 5921 5920 5919 5919 5918 5918 5918 5918 5919 5919 5919 5920 5920 5920 5921 5921 5921 5922 5922 5922 5922 5922 5922 5921 5921 5921 5921 5921 5921 5921 5921 5921 5921 5922 5922 5922 5923 5923 5923 5923 5923 5923 5922 5922 5922 5921 5921 5920 5920 5919 5918 5918 5917 5916 5915 5914 5914 5913 5912 5911 5910 5909 5909 5908 5907 5906 5906 5905 5904 5903 5902 5901 5899 5898 5897 5897 5896 5895 5895 5894 5892 5891
5905 5906 5908 5909 5911 5913 5914 5915 5916 5917 5917 5918 5919 5920 5920 5920 5919 5918 5918 5918 5918 5918 5918 5919 5919 5919 5920 5920 5920 5920 5920 5921 5921 5921 5921 5922 5922 5922 5921 5921 5921 5921 5921 5921 5921 5921 5921 5921 5921 5921 5922 5922 5922 5922 5922 5922 5922 5922 5921 5921 5921 5920 5920 5919 5919 5918 5917 5916 5915 5915 5914 5913 5912 5912 5910 5910 5909 5908 5907 5906 5906 5905 5904 5903 5902 5901 5900 5898 5897 5896 5895 5894 5893 5893 5892 5891 5890
5904 5905 5905 5907 5909 5911 5911 5913 5914 5915 5915 5916 5917 5918 5919 5919 5919 5918 5918 5918 5918 5918 5918 5918 5919 5919 5920 5920 5920 5920 5920 5920 5920 5921 5921 5921 5921 5922 5921 5921 5921 5921 5921 5920 5920 5920 5920 5920 5920 5921 5921 5921 5921 5922 5921 5921 5921 5921 5920 5920 5920 5920 5919 5919 5918 5917 5917 5916 5915 5914 5913 5912 5911 5911 5910 5908 5908 5907 5906 5905 5904 5903 5902 5901 5900 5899 5898 5897 5896 5895 5894 5893 5892 5891 5890 5889 5888
5901 5902 5904 5905 5907 5908 5910 5910 5911 5912 5913 5915 5915 5916 5917 5917 5918 5918 5918 5918 5918 5918 5918 5918 5918 5919 5919 5919 5919 5919 5919 5919 5919 5919 5919 5920 5920 5921 5921 5921 5921 5921 5920 5920 5920 5920 5920 5920 5920 5920 5920 5920 5920 5921 5920 5920 5920 5919 5919 5919 5918 5918 5918 5917 5917 5916 5915 5914 5913 5913 5912 5911 5910 5909 5908 5907 5906 5905 5904 5903 5902 5901 5900 5899 5898 5897 5897 5896 5895 5894 5892 5891 5890 5889 5888 5887 5886
5900 5901 5902 5904 5905 5906 5908 5909 5909 5910 5911 5912 5913 5914 5915 5915 5916 5917 5918 5918 5918 5918 5918 5918 5918 5918 5918 5918 5918 5919 5918 5918 5918 5918 5918 5918 5919 5919 5920 5920 5920 5920 5920 5920 5920 5920 5920 5920 5920 5919 5919 5919 5919 5919 5919 5919 5918 5918 5918 5917 5917 5917 5916 5916 5915 5914 5913 5912 5911 5910 5910 5909 5908 5907 5906 5905 5904 5903 5902 5901 5900 5899 5898 5897 5896 5895 5894 5894 5893 5892 5890 5889 5888 5886 5885 5884 5883
5899 5900 5902 5904 5904 5905 5906 5907 5907 5908 5908 5910 5911 5911 5912 5913 5914 5916 5917 5918 5918 5918 5918 5918 5917 5917 5917 5917 5917 5917 5917 5917 5917 5917 5917 5917 5917 5918 5918 5919 5919 5919 5919 5920 5920 5920 5920 5919 5919 5919 5918 5918 5918 5918 5917 5917 5917 5916 5916 5916 5915 5915 5914 5913 5912 5911 5911 5910 5909 5908 5907 5907 5906 5905 5904 5903 5902 5901 5900 5899 5898 5897 5895 5894 5893 5893 5892 5891 5890 5889 5888 5886 5885 5884 5883 5882 5881
5898 5900 5902 5903 5904 5904 5904 5904 5906 5906 5906 5908 5909 5909 5910 5911 5913 5915 5916 5917 5918 5918 5918 5917 5916 5916 5916 5916 5916 5916 5916 5916 5916 5916 5916 5917 5917 5917 5917 5918 5918 5918 5918 5919 5919 5919 5919 5919 5918 5918 5917 5917 5916 5916 5916 5915 5915 5915 5914 5914 5913 5912 5912 5911 5910 5909 5909 5908 5907 5906 5905 5905 5904 5903 5902 5901 5900 5899 5898 5897 5896 5895 5894 5893 5891 5890 5890 5889 5888 5887 5885 5884 5883 5882 5881 5880 5879
5898 5901 5902 5902 5903 5903 5903 5903 5904 5905 5906 5906 5906 5908 5908 5909 5911 5913 5914 5916 5916 5917 5917 5917 5916 5915 5915 5915 5915 5915 5915 5915 5915 5915 5916 5916 5916 5916 5916 5916 5917 5917 5917 5917 5917 5918 5917 5917 5917 5917 5916 5915 5915 5914 5914 5914 5913 5913 5912 5912 5911 5910 5910 5909 5908 5907 5906 5906 5905 5904 5903 5903 5902 5901 5900 5899 5898 5898 5897 5896 5895 5893 5892 5891 5890 5889 5888 5887 5885 5884 5883 5882 5881 5880 5879 5878 5876
5898 5901 5901 5901 5902 5902 5902 5902 5903 5904 5904 5903 5904 5906 5906 5907 5910 5912 5912 5914 5915 5916 5916 5916 5915 5915 5914 5914 5914 5914 5914 5914 5914 5914 5915 5915 5915 5915 5915 5915 5916 5916 5916 5916 5916 5916 5916 5916 5915 5915 5914 5914 5913 5913 5913 5912 5912 5911 5910 5909 5909 5908 5908 5907 5906 5906 5905 5904 5903 5902 5902 5901 5900 5899 5899 5898 5897 5896 5895 5893 5892 5891 5890 5889 5887 5886 5885 5884 5883 5882 5880 5879 5878 5877 5876 5875 5874
5898 5899 5898 5899 5900 5900 5900 5900 5901 5902 5900 5899 5902 5904 5904 5904 5908 5910 5910 5912 5914 5914 5915 5915 5914 5914 5913 5912 5912 5912 5912 5912 5912 5913 5913 5913 5913 5913 5914 5914 5914 5914 5914 5914 5914 5914 5914 5914 5914 5913 5913 5912 5912 5911 5911 5910 5909 5908 5908 5907 5906 5906 5906 5905 5904 5904 5903 5902 5901 5900 5899 5899 5898 5897 5896 5895 5894 5893 5892 5891 5889 5888 5887 5886 5885 5884 5883 5882 5880 5879 5878 5876 5875 5874 5873 5872 5870
5896 5895 5895 5897 5897 5897 5897 5897 5898 5898 5895 5896 5900 5902 5902 5901 5904 5907 5908 5910 5912 5913 5913 5913 5913 5913 5912 5911 5911 5910 5910 5910 5910 5911 5911 5911 5910 5911 5911 5912 5912 5912 5912 5912 5912 5912 5912 5912 5912 5911 5911 5910 5910 5910 5909 5908 5907 5906 5905 5904 5904 5903 5903 5902 5901 5901 5900 5899 5898 5897 5896 5895 5894 5893 5892 5892 5891 5890 5889 5888 5886 5885 5884 5883 5882 5881 5880 5879 5878 5877 5875 5874 5872 5871 5870 5868 5867
5891 5891 5893 5894 5894 5894 5894 5893 5894 5891 5891 5895 5898 5899 5898 5896 5899 5904 5907 5908 5910 5910 5911 5912 5912 5911 5910 5909 5909 5909 5909 5908 5908 5908 5908 5908 5908 5908 5909 5909 5909 5909 5909 5909 5909 5910 5910 5910 5910 5909 5909 5909 5908 5908 5907 5906 5905 5904 5903 5902 5901 5900 5899 5898 5898 5897 5896 5895 5895 5894 5893 5892 5891 5890 5890 5889 5888 5887 5886 5885 5884 5882 5881 5880 5879 5878 5877 5876 5875 5874 5872 5871 5870 5868 5867 5865 5864
5886 5887 5890 5890 5890 5891 5890 5890 5889 5888 5889 5894 5896 5896 5893 5891 5896 5902 5903 5905 5907 5908 5909 5910 5910 5910 5909 5908 5907 5907 5907 5907 5907 5906 5905 5905 5906 5906 5906 5907 5907 5907 5907 5907 5907 5907 5907 5907 5907 5907 5907 5907 5906 5906 5905 5904 5903 5902 5902 5900 5899 5897 5896 5896 5895 5894 5893 5892 5891 5891 5890 5889 5888 5888 5887 5886 5885 5883 5882 5881 5880 5879 5878 5877 5876 5875 5874 5873 5872 5871 5870 5868 5867 5865 5864 5862 5861
5882 5884 5886 5886 5887 5887 5886 5887 5887 5887 5890 5892 5893 5892 5887 5887 5894 5898 5900 5903 5905 5905 5906 5907 5908 5908 5908 5906 5906 5906 5906 5905 5905 5905 5904 5904 5904 5904 5904 5905 5905 5905 5904 5904 5904 5905 5905 5905 5905 5905 5905 5905 5904 5903 5903 5902 5901 5901 5900 5899 5897 5896 5894 5893 5892 5891 5891 5890 5889 5888 5887 5886 5885 5884 5884 5883 5881 5880 5879 5878 5877 5876 5875 5874 5873 5872 5871 5870 5869 5867 5866 5865 5864 5862 5861 5859 5857
5880 5882 5884 5884 5884 5884 5884 5885 5885 5886 5889 5890 5890 5886 5882 5885 5892 5895 5898 5900 5902 5903 5904 5905 5906 5906 5906 5905 5905 5905 5905 5904 5904 5903 5903 5903 5903 5903 5903 5902 5903 5903 5902 5902 5902 5902 5903 5903 5902 5903 5903 5903 5902 5901 5900 5900 5899 5898 5898 5896 5895 5894 5893 5892 5890 5889 5888 5887 5887 5886 5885 5883 5882 5881 5881 5880 5879 5878 5877 5875 5874 5873 5872 5871 5870 5869 5868 5867 5865 5864 5863 5861 5860 5858 5857 5856 5854
5877 5879 5880 5879 5881 5883 5884 5883 5884 5886 5886 5886 5885 5883 5882 5886 5891 5893 5895 5897 5899 5901 5902 5903 5904 5904 5904 5904 5904 5904 5903 5903 5903 5902 5902 5902 5902 5901 5901 5901 5900 5900 5900 5900 5900 5900 5900 5900 5900 5901 5901 5901 5900 5899 5898 5897 5897 5896 5895 5894 5893 5892 5891 5890 5889 5888 5886 5885 5884 5883 5882 5880 5879 5878 5878 5877 5876 5875 5874 5873 5871 5870 5869 5868 5867 5866 5865 5864 5862 5861 5859 5858 5856 5855 5853 5852 5850
5873 5874 5874 5877 5881 5883 5882 5882 5882 5883 5882 5881 5882 5882 5883 5886 5888 5891 5892 5894 5896 5898 5899 5901 5901 5901 5902 5902 5903 5903 5902 5902 5902 5901 5901 5900 5900 5899 5899 5898 5898 5897 5898 5898 5898 5898 5898 5898 5899 5899 5899 5898 5897 5896 5896 5895 5894 5893 5892 5891 5890 5889 5889 5888 5887 5886 5884 5883 5881 5880 5879 5877 5876 5875 5875 5874 5873 5872 5871 5870 5869 5868 5866 5866 5865 5864 5863 5861 5860 5858 5856 5854 5852 5851 5849 5847 5846
5869 5870 5872 5877 5879 5879 5878 5879 5879 5879 5879 5879 5879 5881 5882 5883 5886 5888 5890 5892 5894 5895 5897 5898 5899 5899 5900 5901 5901 5901 5901 5901 5901 5900 5900 5899 5898 5897 5896 5895 5895 5894 5895 5895 5895 5895 5896 5896 5897 5897 5896 5895 5894 5893 5893 5892 5891 5890 5889 5888 5887 5886 5885 5885 5884 5883 5882 5880 5879 5877 5876 5874 5873 5872 5872 5871 5870 5869 5868 5867 5866 5865 5864 5863 5862 5861 5860 5858 5857 5855 5853 5850 5848 5846 5844 5843 5841
5865 5867 5871 5874 5873 5873 5874 5874 5875 5875 5876 5876 5877 5879 5880 5881 5883 5887 5889 5890 5891 5893 5894 5895 5896 5897 5898 5899 5899 5899 5900 5900 5900 5899 5898 5898 5897 5896 5895 5893 5892 5892 5892 5892 5893 5893 5893 5894 5894 5894 5893 5892 5891 5891 5890 5889 5888 5887 5886 5884 5883 5882 5882 5882 5881 5880 5879 5877 5875 5874 5873 5871 5871 5870 5869 5868 5867 5866 5865 5864 5863 5862 5860 5859 5858 5858 5856 5855 5853 5851 5849 5846 5844 5842 5840 5838 5837
5860 5863 5866 5868 5869 5871 5872 5872 5872 5873 5873 5874 5875 5876 5877 5880 5882 5885 5888 5889 5890 5891 5892 5893 5894 5895 5896 5897 5897 5897 5898 5898 5898 5897 5896 5896 5896 5895 5893 5892 5891 5890 5890 5890 5891 5891 5891 5891 5891 5891 5891 5890 5889 5888 5887 5885 5884 5883 5882 5881 5879 5879 5879 5878 5877 5876 5875 5873 5872 5871 5870 5869 5868 5868 5867 5865 5864 5863 5862 5860 5859 5858 5857 5856 5855 5854 5853 5851 5850 5848 5845 5842 5840 5838 5836 5834 5833
5856 5858 5860 5862 5864 5866 5868 5869 5869 5870 5871 5871 5872 5873 5875 5880 5882 5884 5886 5887 5888 5888 5889 5890 5891 5893 5894 5895 5895 5895 5895 5896 5895 5895 5894 5894 5893 5892 5892 5890 5889 5889 5889 5889 5889 5889 5888 5888 5889 5889 5888 5887 5886 5885 5884 5882 5880 5880 5879 5878 5877 5876 5875 5875 5873 5872 5871 5870 5869 5868 5867 5867 5866 5865 5864 5863 5861 5860 5859 5857 5856 5855 5853 5852 5851 5850 5849 5848 5846 5843 5841 5838 5836 5834 5832 5830 5829
5853 5855 5856 5859 5861 5862 5865 5865 5864 5867 5869 5869 5870 5870 5873 5878 5880 5882 5883 5884 5885 5885 5886 5887 5888 5890 5891 5892 5893 5893 5893 5893 5893 5893 5892 5891 5891 5890 5889 5888 5888 5887 5887 5887 5887 5886 5886 5886 5886 5886 5885 5884 5883 5882 5880 5878 5877 5876 5875 5874 5873 5871 5871 5870 5868 5867 5866 5866 5866 5866 5865 5864 5863 5862 5860 5859 5858 5857 5856 5854 5852 5851 5849 5848 5847 5846 5845 5843 5841 5838 5836 5834 5832 5830 5829 5827 5825